CFG254 EDDH-EDDC

Flight info

Callsign CFG254
Flight time N/A
Altitude 23000
Route RAMAR6B/23 RAMAR Z998 NUSGU/N0438F270 Z998 OSKAN OSKAN4A
Aircraft A320/M-SDE3FGHIRWY/LB1

Departure

Time N/A
Airport Hamburg Helmut Schmidt Airport (EDDH)

Arrival

Time 2026-05-03 20:22
Airport Dresden Airport (EDDC)
Time Latitude Longitude Altitude Speed Heading
2026-05-03 20:15 51.41526 13.92120 7745 ft 325 kts 106°
2026-05-03 20:15 51.40993 13.95518 7263 ft 312 kts 106°
2026-05-03 20:15 51.40472 13.98819 6780 ft 300 kts 106°
2026-05-03 20:15 51.39821 14.01901 6333 ft 284 kts 123°
2026-05-03 20:16 51.38593 14.04182 6021 ft 261 kts 147°
2026-05-03 20:16 51.37040 14.05411 5732 ft 241 kts 169°
2026-05-03 20:16 51.35418 14.05619 5425 ft 231 kts 189°
2026-05-03 20:16 51.33898 14.04909 5140 ft 227 kts 209°
2026-05-03 20:17 51.32642 14.03427 4852 ft 223 kts 221°
2026-05-03 20:17 51.31472 14.01790 4476 ft 225 kts 221°
2026-05-03 20:17 51.30270 14.00112 3923 ft 232 kts 220°
2026-05-03 20:17 51.29061 13.98428 3429 ft 229 kts 220°
2026-05-03 20:18 51.27889 13.96799 3051 ft 221 kts 220°
2026-05-03 20:18 51.26785 13.95265 2997 ft 199 kts 219°
2026-05-03 20:18 51.25789 13.93880 3033 ft 181 kts 219°
2026-05-03 20:18 51.24861 13.92594 3010 ft 173 kts 219°
2026-05-03 20:19 51.23961 13.91348 2996 ft 170 kts 219°
2026-05-03 20:19 51.23076 13.90121 2902 ft 168 kts 218°
2026-05-03 20:19 51.22196 13.88904 2734 ft 167 kts 218°
2026-05-03 20:19 51.21318 13.87688 2526 ft 168 kts 218°
2026-05-03 20:20 51.20439 13.86472 2326 ft 162 kts 218°
2026-05-03 20:20 51.19632 13.85353 2114 ft 148 kts 218°
2026-05-03 20:20 51.18881 13.84316 1924 ft 141 kts 218°
2026-05-03 20:20 51.18145 13.83300 1741 ft 138 kts 218°
2026-05-03 20:21 51.17417 13.82295 1567 ft 139 kts 218°
2026-05-03 20:21 51.16686 13.81289 1381 ft 140 kts 219°
2026-05-03 20:21 51.15952 13.80270 1205 ft 139 kts 219°
2026-05-03 20:21 51.15213 13.79240 1011 ft 141 kts 218°
2026-05-03 20:22 51.14472 13.78228 811 ft 140 kts 218°
2026-05-03 20:22 51.13761 13.77262 729 ft 119 kts 224°
2026-05-03 20:22 51.13262 13.76582 747 ft 70 kts 220°
2026-05-03 20:22 51.13004 13.76235 754 ft 38 kts 219°
2026-05-03 20:23 51.12814 13.75974 761 ft 35 kts 221°
2026-05-03 20:23 51.12633 13.75718 763 ft 34 kts 221°
2026-05-03 20:23 51.12506 13.75542 763 ft 16 kts 221°
2026-05-03 20:23 51.12439 13.75549 764 ft 11 kts 136°
2026-05-03 20:24 51.12396 13.75666 764 ft 13 kts 113°
2026-05-03 20:24 51.12378 13.75811 764 ft 14 kts 65°
2026-05-03 20:24 51.12448 13.75916 762 ft 14 kts 41°
2026-05-03 20:24 51.12517 13.76014 758 ft 13 kts 42°
2026-05-03 20:25 51.12581 13.76106 758 ft 12 kts 42°
2026-05-03 20:25 51.12643 13.76195 758 ft 12 kts 42°
2026-05-03 20:25 51.12628 13.76279 753 ft 9 kts 127°
2026-05-03 20:25 51.12596 13.76350 752 ft 0 kts 129°
2026-05-03 20:26 51.12595 13.76353 750 ft 0 kts 129°